[[{"header":{"parameterUnit":"m.s-1","parameterCategory":1,"la1":30.2991,"la2":30.254,"lo1":-89.0895,"lo2":-89.0444,"dy":0.0017,"dx":0.0017,"nx":28,"ny":28,"refTime":"2024-03-20T03:00:00:Z","depth":0,"parameterNumber":2,"parameterNumberName":"U-component_of_WINDS"},"data":[0,0,0,0,0,0,0,0,0,0,0,0,0,0,0,0,0,0,0,0,0,0,0,0,0,0,0,0,0,0,0,0,0,0,0,0,0,0,0,0,0,0,0,0,0,0,0,0,0,0,0,0,0,0,0,0,0,0,1.5359,1.536,0,1.5473,1.5475,1.5476,1.5518,1.5518,1.5517,1.5517,1.5632,1.5636,1.5639,0,0,0,0,0,0,0,0,0,0,0,0,0,1.5174,1.5177,1.5359,1.536,1.5362,1.5473,1.5475,1.5476,1.5518,1.5518,1.5517,1.5517,1.5631,1.5635,1.5639,0,0,0,0,0,0,0,0,0,0,0,0,0,1.5268,1.5178,1.5359,1.5396,1.5401,1.5473,1.5475,1.5477,1.5518,1.5518,1.5517,1.5516,1.563,1.5635,1.564,1.5683,0,0,1.5656,1.5658,0,0,0,0,0,0,0,0,1.5262,1.5274,1.5389,1.5394,1.5399,1.5481,1.5452,1.5546,1.5518,1.5473,1.5517,1.5516,1.5582,1.5591,1.5614,1.5688,1.5693,1.5656,1.5659,1.5661,1.5663,0,0,0,0,0,0,0,1.5256,1.527,1.5404,1.5391,1.5397,1.5406,1.5419,1.547,1.553,1.5477,1.5481,1.5494,1.5585,1.5609,1.5617,1.5695,1.5656,1.5661,1.5664,1.5666,1.5808,1.5809,0,0,0,0,0,0,1.5243,1.5264,1.5401,1.5408,1.5328,1.541,1.5424,1.5455,1.5529,1.554,1.5494,1.5495,1.56,1.5611,1.5621,1.5675,1.5661,1.5666,1.5669,1.5808,1.5808,1.5809,0,0,0,0,0,0,1.5239,1.5255,1.5396,1.5337,1.5355,1.5414,1.5448,1.5458,1.5482,1.5542,1.5552,1.5508,1.56,1.5614,1.5667,1.568,1.5669,1.5673,1.5807,1.5808,1.5809,1.5784,0,0,0,0,0,0,1.5234,1.5253,1.5271,1.5337,1.5358,1.5441,1.5449,1.546,1.5491,1.5493,1.5558,1.5568,1.5601,1.5659,1.5672,1.5687,1.5677,1.5806,1.5807,1.5809,1.5784,1.5784,1.5785,0,0,0,0,0,1.5227,1.526,1.5272,1.5288,1.5382,1.5441,1.5454,1.5492,1.5492,1.5509,1.5548,1.5566,1.5676,1.5664,1.5679,1.5696,1.5805,1.5807,1.5808,1.5784,1.5784,1.5784,0,0,0,0,0,0,1.5194,1.5269,1.5283,1.5339,1.5383,1.5448,1.5472,1.5491,1.5536,1.5537,1.5581,1.5596,1.5644,1.5675,1.5661,1.574,1.5742,1.5746,1.5718,1.5719,1.5719,1.571,1.5681,0,0,0,0,0,1.5193,1.5236,1.5299,1.5341,1.5363,1.5413,1.5441,1.5466,1.5514,1.5533,1.5575,1.562,1.5665,1.5694,1.5738,1.5789,1.5802,1.5807,1.5807,1.5807,1.5811,1.5838,1.584,1.5814,1.5814,1.5814,0,0,1.5192,1.5238,1.5262,1.5336,1.5374,1.5416,1.5429,1.5474,1.5505,1.554,1.5592,1.5624,1.5677,1.5729,1.5753,1.5756,1.5821,1.5809,1.5809,1.5812,1.584,1.5842,1.5844,1.5815,1.5815,1.5815,0,0,1.5211,1.5251,1.529,1.5327,1.5384,1.5417,1.5426,1.5488,1.5511,1.5564,1.559,1.5628,1.5704,1.5741,1.5769,1.58,1.5817,1.5813,1.5814,1.584,1.5842,1.5844,1.5853,1.5856,1.5816,1.5816,1.5816,0,1.5202,1.5267,1.5308,1.535,1.5381,1.5414,1.5453,1.5487,1.5555,1.5575,1.5577,1.5673,1.5711,1.577,1.5778,1.58,1.5811,1.5806,1.5838,1.5841,1.5843,1.5853,1.5856,1.5815,1.5815,1.5815,1.5815,0,1.5253,1.5298,1.5322,1.5387,1.5421,1.5461,1.5506,1.5535,1.5557,1.5589,1.5642,1.5689,1.5743,1.5759,1.5781,1.5821,1.582,1.583,1.5832,1.5844,1.5854,1.5858,1.5814,1.5814,1.5814,1.5814,0,0,1.5255,1.5341,1.5349,1.5378,1.5442,1.5477,1.5518,1.5571,1.5594,1.564,1.5674,1.5738,1.5746,1.5778,1.5804,1.5827,1.5846,1.5833,1.5835,1.5833,1.5892,1.5884,1.5888,1.5859,1.5859,1.586,1.5887,0,1.5282,1.5358,1.5395,1.5454,1.5495,1.5526,1.5562,1.5604,1.5635,1.5673,1.5707,1.5751,1.5759,1.5778,1.5802,1.5839,1.5859,1.5838,1.589,1.5892,1.5876,1.5894,1.5886,1.591,1.5891,1.5892,1.5893,0,1.5324,1.5369,1.5432,1.549,1.5509,1.554,1.5591,1.5627,1.5675,1.5696,1.5731,1.5756,1.5799,1.5798,1.5857,1.5842,1.5866,1.5887,1.5888,1.5895,1.5893,1.59,1.5918,1.5921,1.5899,1.5899,1.5898,0,1.5318,1.5394,1.5442,1.5466,1.5535,1.5556,1.5585,1.5633,1.5662,1.5705,1.5724,1.5772,1.5799,1.5835,1.5871,1.5867,1.5926,1.5929,1.5944,1.5943,1.5955,1.5954,1.5977,1.5971,1.597,1.597,1.597,0,1.5343,1.5381,1.544,1.5469,1.5511,1.5552,1.5592,1.5624,1.5666,1.5701,1.573,1.5762,1.5809,1.5846,1.5875,1.5919,1.5931,1.5948,1.5955,1.5945,1.5943,1.5961,1.596,1.5971,1.5971,1.5971,1.5971,0,1.5344,1.5385,1.5439,1.5499,1.5515,1.5543,1.5595,1.5623,1.5655,1.5699,1.5711,1.5761,1.5807,1.5847,1.5907,1.5926,1.5971,1.598,1.5955,1.5958,1.5971,1.5969,1.6006,1.6013,1.6002,1.6002,1.6002,0,1.5357,1.5387,1.545,1.5476,1.5505,1.5546,1.5576,1.5616,1.5646,1.5701,1.5723,1.5771,1.5811,1.5882,1.5923,1.5968,1.5978,1.5988,1.5986,1.5974,1.5978,1.5975,1.5978,1.5988,1.5988,1.5988,1.5988,0,1.5376,1.5395,1.5437,1.5485,1.552,1.556,1.5601,1.562,1.5668,1.5699,1.5746,1.5777,1.5838,1.5884,1.5934,1.5964,1.5983,1.5988,1.5994,1.5984,1.5968,1.5976,1.5954,1.5987,1.5987,1.5988,1.5988,1.5988,1.5384,1.5411,1.5459,1.5504,1.5539,1.5576,1.5606,1.5641,1.5681,1.5734,1.5755,1.5803,1.5848,1.5918,1.5947,1.5984,1.5987,1.5996,1.5998,1.5999,1.5997,1.5962,1.5993,1.5993,1.5993,1.5993,1.5993,0,1.5403,1.5436,1.5477,1.5533,1.5568,1.5584,1.5629,1.5657,1.5699,1.574,1.5779,1.5832,1.5877,1.5921,1.5967,1.5988,1.5999,1.5999,1.5998,1.6004,1.5992,1.5982,1.599,1.599,1.599,1.599,1.599,1.599,1.5418,1.5464,1.5488,1.5551,1.5584,1.5631,1.5655,1.5689,1.5722,1.578,1.5817,1.5846,1.5888,1.5938,1.5979,1.5991,1.6006,1.6004,1.6018,1.6005,1.6005,1.6005,1.5996,1.6007,1.6007,1.6028,1.6028,1.6028]},{"header":{"parameterUnit":"m.s-1","parameterCategory":1,"la1":30.2991,"la2":30.254,"lo1":-89.0895,"lo2":-89.0444,"dy":0.0017,"dx":0.0017,"nx":28,"ny":28,"refTime":"2024-03-20T03:00:00:Z","depth":0,"parameterNumber":3,"parameterNumberName":"V-component_of_WINDS"},"data":[0,0,0,0,0,0,0,0,0,0,0,0,0,0,0,0,0,0,0,0,0,0,0,0,0,0,0,0,0,0,0,0,0,0,0,0,0,0,0,0,0,0,0,0,0,0,0,0,0,0,0,0,0,0,0,0,0,0,3.1138,3.1138,0,3.1186,3.1187,3.1187,3.1181,3.118,3.118,3.1179,3.1225,3.1227,3.1229,0,0,0,0,0,0,0,0,0,0,0,0,0,3.1035,3.1037,3.1138,3.1138,3.1139,3.1186,3.1187,3.1187,3.1181,3.118,3.1179,3.1179,3.1224,3.1227,3.1229,0,0,0,0,0,0,0,0,0,0,0,0,0,3.1081,3.1038,3.1138,3.1142,3.1143,3.1186,3.1187,3.1188,3.1182,3.118,3.1179,3.1178,3.1223,3.1226,3.1229,3.1271,0,0,3.1238,3.1239,0,0,0,0,0,0,0,0,3.1079,3.1085,3.1141,3.1142,3.1143,3.1177,3.1168,3.1215,3.1182,3.1167,3.1179,3.1178,3.121,3.1214,3.1225,3.1273,3.1275,3.1238,3.124,3.1241,3.1242,0,0,0,0,0,0,0,3.1075,3.1083,3.1157,3.1141,3.1143,3.114,3.1145,3.1177,3.1194,3.1168,3.1168,3.1174,3.121,3.1222,3.1226,3.1275,3.1238,3.1241,3.1243,3.1244,3.1357,3.1358,0,0,0,0,0,0,3.1072,3.108,3.1155,3.1158,3.1107,3.1142,3.1148,3.1167,3.1194,3.1197,3.1175,3.1173,3.1218,3.1223,3.1228,3.1276,3.1241,3.1244,3.1246,3.1356,3.1357,3.1359,0,0,0,0,0,0,3.107,3.1079,3.1153,3.1119,3.1129,3.1145,3.1166,3.1168,3.1181,3.1199,3.1201,3.1184,3.1217,3.1224,3.126,3.1278,3.1245,3.1248,3.1354,3.1356,3.1358,3.1375,0,0,0,0,0,0,3.1067,3.1078,3.1095,3.112,3.113,3.1186,3.1167,3.117,3.1186,3.1185,3.1209,3.1211,3.1217,3.1255,3.1263,3.1281,3.125,3.1353,3.1355,3.1357,3.1373,3.1377,3.1381,0,0,0,0,0,3.1063,3.1098,3.1096,3.1105,3.1152,3.1187,3.1193,3.12,3.1188,3.1204,3.1215,3.1211,3.1275,3.1259,3.1267,3.1287,3.1352,3.1354,3.1357,3.1371,3.1377,3.1381,0,0,0,0,0,0,3.1074,3.1101,3.1099,3.1143,3.1163,3.1186,3.1207,3.1205,3.1228,3.1226,3.1232,3.1237,3.1273,3.1284,3.1266,3.1327,3.1311,3.1316,3.1319,3.1325,3.1329,3.1325,3.1253,0,0,0,0,0,3.1081,3.1109,3.1131,3.1167,3.1177,3.119,3.1206,3.1209,3.1229,3.1237,3.1251,3.127,3.1294,3.131,3.1333,3.1375,3.1379,3.1392,3.1396,3.1399,3.1403,3.1424,3.1429,3.1368,3.1368,3.1368,0,0,3.1097,3.1115,3.1132,3.117,3.1185,3.1212,3.1198,3.1227,3.1246,3.1241,3.1276,3.1287,3.1308,3.1347,3.1364,3.1356,3.1421,3.1403,3.1406,3.1407,3.1427,3.1433,3.1438,3.137,3.1369,3.1369,0,0,3.1139,3.1157,3.1188,3.1204,3.1228,3.1237,3.1244,3.1267,3.1274,3.131,3.1307,3.1329,3.1371,3.1385,3.1398,3.1444,3.144,3.1452,3.1473,3.1493,3.1497,3.1502,3.1516,3.1522,3.1455,3.1455,3.1455,0,3.1155,3.1197,3.1204,3.1233,3.1249,3.1247,3.1278,3.1292,3.1322,3.1332,3.1324,3.1376,3.139,3.1431,3.1442,3.1453,3.146,3.1449,3.1496,3.1501,3.1505,3.1519,3.1525,3.1457,3.1456,3.1456,3.1456,0,3.1214,3.1243,3.1265,3.1295,3.1313,3.1343,3.1353,3.137,3.1371,3.138,3.1415,3.1432,3.1458,3.1468,3.1469,3.1508,3.1503,3.1495,3.1479,3.1512,3.1525,3.1531,3.1458,3.1458,3.1457,3.1457,0,0,3.1265,3.1298,3.1305,3.1318,3.1344,3.1365,3.1394,3.1421,3.1434,3.1455,3.1478,3.1513,3.1506,3.152,3.1523,3.1541,3.1574,3.1531,3.1531,3.1537,3.1616,3.1621,3.1627,3.1572,3.1573,3.1573,3.1614,0,3.1308,3.136,3.1367,3.1413,3.1438,3.1436,3.146,3.1478,3.1486,3.1508,3.1517,3.1541,3.1531,3.1539,3.1557,3.1566,3.159,3.1564,3.1591,3.1592,3.1585,3.1634,3.164,3.1677,3.1619,3.162,3.1621,0,3.1366,3.1388,3.1437,3.1458,3.1468,3.1491,3.1515,3.1536,3.1555,3.1559,3.1575,3.1576,3.1603,3.1586,3.1624,3.1606,3.1617,3.1623,3.1625,3.1627,3.1608,3.1636,3.1689,3.1695,3.1629,3.1629,3.1628,0,3.1396,3.1438,3.1472,3.1483,3.1509,3.1524,3.1536,3.1554,3.1569,3.1589,3.1598,3.1621,3.1633,3.165,3.1656,3.1643,3.1692,3.1676,3.1695,3.1695,3.1705,3.1704,3.1759,3.1714,3.1714,3.1714,3.1714,0,3.1443,3.1472,3.1486,3.1507,3.1539,3.1545,3.1576,3.1587,3.1602,3.1624,3.1623,3.1643,3.165,3.167,3.1674,3.1703,3.1709,3.1713,3.1713,3.1712,3.1712,3.1719,3.1716,3.1716,3.1715,3.1715,3.1715,0,3.1482,3.1492,3.1529,3.155,3.1556,3.1579,3.1596,3.1615,3.1623,3.165,3.1657,3.1669,3.1693,3.17,3.1729,3.1732,3.1765,3.1764,3.1759,3.1759,3.1777,3.1775,3.1838,3.1846,3.1797,3.1797,3.1798,0,3.1511,3.1533,3.1557,3.1571,3.1583,3.1607,3.1622,3.1629,3.1645,3.1667,3.1683,3.1707,3.1726,3.1764,3.1774,3.1796,3.1794,3.1815,3.1798,3.1795,3.1793,3.1791,3.1793,3.1818,3.1819,3.1819,3.1819,0,3.156,3.1564,3.1587,3.1611,3.1629,3.1648,3.1666,3.1678,3.1687,3.1704,3.1729,3.1744,3.1773,3.1796,3.1817,3.1827,3.1824,3.1825,3.183,3.1829,3.1824,3.1826,3.1767,3.1823,3.1823,3.1823,3.1822,3.1822,3.1594,3.1613,3.1632,3.1657,3.1672,3.1688,3.1707,3.1717,3.1739,3.1763,3.1766,3.1792,3.1809,3.1837,3.1848,3.1868,3.1861,3.187,3.1871,3.1873,3.1874,3.1822,3.1872,3.1872,3.1871,3.1871,3.1871,0,3.1642,3.1654,3.1677,3.1703,3.1721,3.1718,3.1738,3.1753,3.1777,3.1793,3.1812,3.184,3.1862,3.1874,3.1895,3.1908,3.1907,3.1913,3.1912,3.1914,3.1879,3.1871,3.1914,3.1914,3.1914,3.1914,3.1914,3.1914,3.1669,3.1701,3.1707,3.1745,3.1757,3.1784,3.1795,3.1809,3.1822,3.1853,3.1872,3.188,3.1894,3.1916,3.1936,3.1938,3.1946,3.1952,3.1954,3.1921,3.1917,3.1912,3.1905,3.1954,3.1954,3.1988,3.1988,3.1988]}]]